Location: Waldport
(44.4270°N, 124.0680°W)
Time: 14:29:25
(UTC-07:00)

APEX - Pass Details

Date: 23 June 2018
Orbit: 334 x 1157 km, 69.9° (Epoch: 14 July)

Event Time Altitude Azimuth Distance (km) Brightness Sun altitude
Rises 22:06:28 0° 340° (NNW) 2,222 7.8 -9.2°
Reaches altitude 10° 22:08:24 10° 349° (N) 1,431 6.4 -9.4°
Maximum altitude 22:11:20 39° 61° (ENE) 670 3.6 -9.8°
Enters shadow 22:14:07 14° 127° (SE) 1,431 4.8 -10.1°
